Regional Weather Roundup
Issued by NWS

Home | Current Version | Previous Version | Graphics & Text | Print | Product List | Glossary On
Versions: 1 2 3 4 5 6 7 8 9 10 11 12 13 14 15 16 17 18 19 20 21 22 23 24 25 26 27 28 29 30 31 32 33 34 35 36 37 38 39 40 41 42 43 44 45 46 47 48 49 50
721
ASUS45 KTFX 210510
RWRMT
MONTANA REGIONAL WEATHER ROUNDUP
NATIONAL WEATHER SERVICE GREAT FALLS MT
1100 PM MDT WED SEP 20 2017

NOTE: "FAIR" INDICATES FEW OR NO CLOUDS BELOW 12000 FEET WITH NO
SIGNIFICANT WEATHER AND/OR OBSTRUCTIONS TO VISIBILITY.

MTZ001>007-043-210600-
WEST OF THE DIVIDE

CITY           SKY/WX    TMP DP  RH WIND       PRES   REMARKS
KALISPELL      CLOUDY    43  40  89 S5        29.70R
MISSOULA       CLOUDY    43  37  79 NW3       29.75S
BUTTE          CLOUDY    34  33  96 SE5       29.75S
MULLAN PASS    CLOUDY    30  29  96 VRB6      29.70S WCI  24
ANACONDA         N/A     37  30  75 SE6       29.74R
DEER LODGE       N/A     39  32  75 CALM      29.76R
EUREKA           N/A     46  36  66 CALM      29.67R
HAMILTON         N/A     39  36  87 CALM      29.76S
LIBBY            N/A     43  36  75 SE3       29.69R
$$

MTZ008-052>055-210600-
SOUTHWEST MONTANA

CITY           SKY/WX    TMP DP  RH WIND       PRES   REMARKS
BOZEMAN        CLOUDY    45  43  93 SW5       29.73S
DILLON         CLOUDY    40  34  79 SW6       29.73S
W YELLOWSTONE  LGT RAIN  39  37  93 W10G18    29.77S
ENNIS          CLOUDY    46  32  57 SE8       29.77S
THREE FORKS      N/A     44  37  76 CALM      29.76R
$$

MTZ009-010-012-014-046-048-049-054-210600-
EAST SLOPES AND CENTRAL MONTANA

CITY           SKY/WX    TMP DP  RH WIND       PRES   REMARKS
CUT BANK       MOCLDY    42  32  67 W13       29.62R
GREAT FALLS    PTCLDY    44  30  57 SW12      29.67R
MALMSTROM AFB  MOCLDY    45  32  61 SW12      29.67R
HELENA         CLEAR     42  36  79 CALM      29.72R
BOWMANS CRNR     N/A     38  31  75 S13       29.66R WCI  31
CHOTEAU          N/A     39  30  70 S6        29.66R
FAIRFIELD        N/A     40  28  61 S14       29.64R
POWER            N/A     40  29  65 S12       29.65R
RAYNESFORD     MOCLDY    47  29  50 SW10      29.68R
ULM              N/A     43  31  64 S5        29.68R
$$

MTZ011-013-016-021-045-047-050-051-210600-
NORTH CENTRAL MONTANA

CITY           SKY/WX    TMP DP  RH WIND       PRES   REMARKS
HAVRE          CLOUDY    48  33  56 SW12      29.60R
LEWISTOWN      CLOUDY    48  31  51 SW12      29.68R
N BAR RANCH      N/A     43  30  61 W5        29.70R
CHINOOK          N/A     52  34  50 W6        29.59R
DENTON           N/A     47  32  55 S5        29.63R
GEYSER           N/A     46  30  54 W14       29.66R
GRASS RANGE    MOCLDY    47  33  58 SW12      29.63R
JUDITH GAP       N/A     40  33  74 NW6       29.71R
WINIFRED       MOCLDY    49  33  52 SW16      29.66R
$$

MTZ017>020-022>027-061-062-210600-
NORTHEAST MONTANA

CITY           SKY/WX    TMP DP  RH WIND       PRES   REMARKS
GLASGOW        CLOUDY    51  38  60 SE6       29.60R
JORDAN           N/A     52  38  58 S3        29.62F
SIDNEY         CLEAR     44  34  67 CALM      29.64R
WOLF POINT     CLOUDY    48  38  68 CALM      29.62R
MALTA          CLEAR     41  34  75 CALM      29.60R
POPLAR           N/A     52  36  54 SE5       29.63R
$$

MTZ028>42-056>058-210600-
SOUTHCENTRAL AND SOUTHEAST MONTANA

CITY           SKY/WX    TMP DP  RH WIND       PRES   REMARKS
BAKER          PTCLDY    56  30  37 S9        29.68F
BILLINGS       MOCLDY    51  38  60 W8        29.70F
LIVINGSTON     CLOUDY    44  41  89 SW3       29.72S
MILES CITY     CLOUDY    55  34  45 W9        29.65R
BIG TIMBER     CLOUDY    43  41  93 SW10      29.74F
HARLOWTON      MOCLDY    42  36  81 MISG      29.71S
LAUREL           N/A     50  39  66 CALM      29.70F
$$

REGIONAL REPORTS...DAKOTAS

CITY           SKY/WX    TMP DP  RH WIND       PRES   REMARKS
WILLISTON      CLEAR     42  37  82 CALM      29.64R
MINOT          PTCLDY    51  39  63 SE6       29.67S
DICKINSON      CLOUDY    51  36  56 S8        29.68F
BEACH            N/A     48  32  53 S8        29.70S
CROSBY           N/A     45  39  81 S9        29.63R
TIOGA            N/A     43  36  75 CALM      29.66S
WATFORD CITY     N/A     48  34  57 W3        29.64S
BISMARCK       PTCLDY    56  41  57 S9        29.75S
GRAND FORKS    CLEAR     56  45  66 S13       29.80S
FARGO          CLEAR     59  44  57 S13       29.85S
BUFFALO SD       N/A     57  34  41 SE9       29.67R
$$

REGIONAL REPORTS...WYOMING/IDAHO/WASHINGTON

CITY           SKY/WX    TMP DP  RH WIND       PRES   REMARKS
GILLETTE       CLOUDY    58  33  39 S10       29.74F
SHERIDAN       PTCLDY    58  31  35 S5        29.67F
BUFFALO WY     CLOUDY    53  27  36 SE7       29.74F
CODY           CLOUDY    52  33  48 E10       29.72F
YELLOWSTONE LA   N/A     35  35 100 VRB3      29.81F
IDAHO FALLS    LGT RAIN  47  44  90 SW10      29.77S
SALMON         CLEAR     38  36  92 CALM      29.76F
BOISE          CLOUDY    50  43  77 SE6       29.72S
SPOKANE        PTCLDY    41  40  96 S6        29.73S
$$

REGIONAL REPORTS...ALBERTA

CITY           SKY/WX    TMP DP  RH WIND       PRES   REMARKS
EDMONTON       LGT RAIN  39  37  93 NW14G20   29.57R WCI  31
CALGARY        MOCLDY    39  30  70 N13G22    29.62R WCI  32
LETHBRIDGE     CLEAR     41  30  65 N6        29.61R
MEDICINE HAT   PTCLDY    45  34  65 NW6       29.59R
$$

REGIONAL REPORTS...SASKATCHEWAN

CITY           SKY/WX    TMP DP  RH WIND       PRES   REMARKS
SWIFT CURRENT  CLEAR     45  23  42 SW13      29.52R
REGINA         PTCLDY    41  32  70 S12       29.55R
SASKATOON      PTCLDY    37  32  81 SW9       29.47R WCI  31
$$




USA.gov is the U.S. government's official web portal to all federal, state and local government web resources and services.